Weather in Erken-Yurt

Russia / Karachay-Cherkess Republic     44°26′51″N   41°54′55″E
temp.,
°C
wind,
m/s
gust,
m/s
humid.,
%
clouds,
%
prec.,
mm/h
press.,
hPa
HPBL,
m
18 may, tue
tue1800:00+13w499694 0.1 1010494
03:00+13w2796100 0.8 1011525
06:00+13wnw1395100 1.1 1011253
09:00+15nw348447 1.1 1011577
12:00+18nnw337091 0.0 10111140
15:00+18nne227061 0.1 1011648
18:00+18e24751 0.1 1011685
21:00+14e22860 0.1 101125
19 may, wed
wed1900:00+13ese34927 0.0 101057
03:00+12ese2495100 0.0 100787
06:00+13w359397 0.1 1009230
09:00+14nw449297 0.2 1009444
12:00+12nw71386100 0.2 1014718
15:00+17nw477355 0.3 1014982
18:00+16nnw5870100 0.0 1014645
21:00+13ese227410 0.0 101622
20 may, thu
thu2000:00+11se33845 0.0 101738
03:00+10sse339247 0.0 101635
06:00+10s2277100 0.0 101752
09:00+17ene22654 0.0 1016437
12:00+21e33510 0.0 10141151
15:00+23e444911 0.0 10131365
18:00+20e487097 0.0 1014290
21:00+16ese411755 0.0 1014248
21 may, fri
fri2100:00+13ese37840 0.0 1013122
03:00+12ese34900 0.0 101256
06:00+13ese35835 0.0 1012116
09:00+21ese46590 0.0 1011375
12:00+24e710565 0.0 1009607
15:00+25e813625 0.0 1008677
18:00+23ese816685 0.0 1008505
21:00+20ese614690 0.0 1008336
22 may, sat
sat2200:00+15ese35864 0.0 100784
03:00+14se2287100 0.0 100732
06:00+16ese347948 0.0 100678
09:00+23e13575 0.0 1006345
12:00+26nw4457100 0.0 1008863
15:00+27ene2257100 0.0 10071237
18:00+25ne3574100 0.0 1007175
21:00+21w1184100 0.8 100818